Crookston, MN

7:04 AM CDT on July 22, 2017 (GMT -0500)
Crookston Municipal-Kirkwood

Weather History for KCKN - November, 2013

Change the Weather History Date:

Wednesday, November 20, 2013

  Actual Average Record
Temperature  
Mean Temperature 29 °F -  
Max Temperature 41 °F 29 °F 51 °F (2001)
Min Temperature 15 °F 15 °F -2 °F (2014)
Degree Days  
Heating Degree Days 36    
Moisture  
Dew Point 23 °F    
Average Humidity 85    
Maximum Humidity 100    
Minimum Humidity 74    
Precipitation  
Precipitation 0.00 in - - ()
Sea Level Pressure  
Sea Level Pressure 29.90 in    
Wind  
Wind Speed 12 mph (NNW)    
Max Wind Speed 24 mph    
Max Gust Speed 31 mph    
Visibility 9 miles    
Events Snow    
Averages and records for this station are not official NWS values.
T = Trace of Precipitation, MM = Missing Value Source: NWS Daily Summary

Daily Weather History Graph

Daily Weather History Graph

Search for Another Location

Airport or City:

Trip Planner

Search our weather history database for the weather conditions in past years. The results will help you decide how hot, cold, wet, or windy it might be!

Date:

Astronomy

Nov. 20, 2013 Rise Set
Actual Time 7:40 AM CST 4:43 PM CST
Civil Twilight 7:05 AM CST 5:18 PM CST
Nautical Twilight 6:27 AM CST 5:56 PM CST
Astronomical Twilight 5:51 AM CST 6:32 PM CST
Moon 7:27 PM CST (11/20) 10:06 AM CST (11/20)
Length of Visible Light 10h 12m
Length of Day
9h 03m
Waning Gibbous, 91% of the Moon is Illuminated
Nov 20
Waning Gibbous
Nov 25
Last Quarter
Dec 2
New
Dec 9
First Quarter
Dec 17
Full

Hourly Weather History & Observations

Time (CST) Temp. Windchill Dew Point Humidity Pressure Visibility Wind Dir Wind Speed Gust Speed Precip Events Conditions
12:14 AM 41.0 °F 34.3 °F 35.6 °F 81% 29.61 in 10.0 mi SW 11.5 mph 19.6 mph N/A   Clear
12:35 AM 39.2 °F 33.6 °F 33.8 °F 81% 29.62 in 10.0 mi WSW 8.1 mph - N/A   Clear
12:54 AM 35.6 °F 30.7 °F 32.0 °F 87% 29.62 in 10.0 mi WSW 5.8 mph - N/A   Clear
1:14 AM 35.6 °F 31.7 °F 32.0 °F 87% 29.64 in 10.0 mi WSW 4.6 mph - N/A   Clear
1:35 AM 35.6 °F 32.8 °F 32.0 °F 87% 29.64 in 10.0 mi WSW 3.5 mph - N/A   Clear
1:54 AM 33.8 °F 30.8 °F 30.2 °F 87% 29.64 in 10.0 mi SW 3.5 mph - N/A   Clear
2:15 AM 32.0 °F 25.6 °F 30.2 °F 93% 29.65 in 10.0 mi SSW 6.9 mph - N/A   Clear
2:35 AM 33.8 °F 28.6 °F 30.2 °F 87% 29.65 in 10.0 mi SW 5.8 mph - N/A   Clear
2:54 AM 33.8 °F 28.6 °F 30.2 °F 87% 29.67 in 10.0 mi SW 5.8 mph - N/A   Clear
3:15 AM 32.0 °F 26.4 °F 30.2 °F 93% 29.68 in 10.0 mi West 5.8 mph - N/A   Clear
3:34 AM 30.2 °F 21.9 °F 30.2 °F 100% 29.70 in 10.0 mi WNW 9.2 mph - N/A   Clear
3:54 AM 30.2 °F 22.6 °F 28.4 °F 93% 29.71 in 10.0 mi NW 8.1 mph - N/A   Clear
4:15 AM 30.2 °F 22.6 °F 28.4 °F 93% 29.72 in 10.0 mi NNW 8.1 mph - N/A   Clear
4:34 AM 30.2 °F 20.8 °F 28.4 °F 93% 29.74 in 10.0 mi NNW 11.5 mph - N/A   Clear
4:55 AM 30.2 °F 20.8 °F 28.4 °F 93% 29.74 in 10.0 mi North 11.5 mph - N/A   Clear
5:15 AM 30.2 °F 20.8 °F 28.4 °F 93% 29.75 in 10.0 mi North 11.5 mph - N/A   Clear
5:34 AM 28.4 °F 19.7 °F 26.6 °F 93% 29.76 in 10.0 mi North 9.2 mph - N/A   Clear
5:54 AM 28.4 °F 19.1 °F 26.6 °F 93% 29.79 in 10.0 mi North 10.4 mph - N/A   Clear
6:15 AM 28.4 °F 18.0 °F 26.6 °F 93% 29.80 in 10.0 mi North 12.7 mph - N/A   Clear
6:34 AM 28.4 °F 17.5 °F 26.6 °F 93% 29.80 in 10.0 mi North 13.8 mph - N/A   Clear
6:55 AM 26.6 °F 15.7 °F 24.8 °F 93% 29.81 in 10.0 mi North 12.7 mph - N/A   Clear
7:15 AM 26.6 °F 15.7 °F 24.8 °F 93% 29.82 in 10.0 mi North 12.7 mph - N/A   Clear
7:34 AM 26.6 °F 14.3 °F 24.8 °F 93% 29.84 in 10.0 mi North 16.1 mph - N/A   Clear
7:55 AM 26.6 °F 15.2 °F 23.0 °F 86% 29.85 in 10.0 mi North 13.8 mph - N/A   Clear
8:15 AM 26.6 °F 15.2 °F 23.0 °F 86% 29.86 in 10.0 mi North 13.8 mph - N/A   Scattered Clouds
8:34 AM 26.6 °F 13.4 °F 24.8 °F 93% 29.87 in 10.0 mi North 18.4 mph - N/A   Overcast
8:55 AM 28.4 °F 17.0 °F 23.0 °F 80% 29.88 in 10.0 mi North 15.0 mph 24.2 mph N/A   Mostly Cloudy
9:14 AM 28.4 °F 16.6 °F 24.8 °F 86% 29.89 in 10.0 mi North 16.1 mph - N/A   Mostly Cloudy
9:34 AM 28.4 °F 16.2 °F 24.8 °F 86% 29.89 in 10.0 mi North 17.3 mph 21.9 mph N/A   Mostly Cloudy
9:55 AM 28.4 °F 17.0 °F 23.0 °F 80% 29.90 in 10.0 mi North 15.0 mph 18.4 mph N/A   Overcast
10:14 AM 28.4 °F 18.0 °F 23.0 °F 80% 29.90 in 10.0 mi North 12.7 mph - N/A   Overcast
10:34 AM 28.4 °F 16.6 °F 23.0 °F 80% 29.91 in 10.0 mi North 16.1 mph - N/A   Overcast
10:55 AM 28.4 °F 16.6 °F 24.8 °F 86% 29.91 in 10.0 mi North 16.1 mph - N/A   Overcast
11:14 AM 28.4 °F 16.6 °F 23.0 °F 80% 29.92 in 10.0 mi North 16.1 mph - N/A   Overcast
11:34 AM 28.4 °F 16.2 °F 23.0 °F 80% 29.92 in 10.0 mi North 17.3 mph - N/A   Overcast
11:55 AM 28.4 °F 16.6 °F 23.0 °F 80% 29.92 in 10.0 mi North 16.1 mph - N/A   Overcast
12:14 PM 30.2 °F 18.9 °F 23.0 °F 75% 29.93 in 10.0 mi North 16.1 mph - N/A   Overcast
12:34 PM 30.2 °F 19.8 °F 23.0 °F 75% 29.93 in 10.0 mi North 13.8 mph - N/A   Overcast
12:55 PM 30.2 °F 20.2 °F 24.8 °F 80% 29.94 in 10.0 mi North 12.7 mph - N/A   Overcast
1:14 PM 28.4 °F 16.2 °F 23.0 °F 80% 29.93 in 10.0 mi North 17.3 mph - N/A   Overcast
1:35 PM 28.4 °F 17.0 °F 21.2 °F 74% 29.93 in 10.0 mi North 15.0 mph - N/A   Overcast
1:55 PM 28.4 °F 17.5 °F 21.2 °F 74% 29.93 in 10.0 mi North 13.8 mph - N/A   Mostly Cloudy
2:14 PM 28.4 °F 16.6 °F 21.2 °F 74% 29.93 in 10.0 mi North 16.1 mph - N/A   Mostly Cloudy
2:35 PM 28.4 °F 17.5 °F 21.2 °F 74% 29.93 in 10.0 mi North 13.8 mph - N/A   Mostly Cloudy
2:54 PM 28.4 °F 17.5 °F 21.2 °F 74% 29.93 in 10.0 mi North 13.8 mph - N/A   Mostly Cloudy
3:14 PM 28.4 °F 19.1 °F 21.2 °F 74% 29.93 in 10.0 mi North 10.4 mph - N/A   Overcast
3:35 PM 28.4 °F 19.7 °F 23.0 °F 80% 29.94 in 10.0 mi North 9.2 mph - N/A   Overcast
3:54 PM 30.2 °F 21.3 °F 23.0 °F 75% 29.95 in 10.0 mi North 10.4 mph - N/A   Overcast
4:15 PM 28.4 °F 17.0 °F 23.0 °F 80% 29.96 in 10.0 mi North 15.0 mph - N/A   Overcast
4:35 PM 28.4 °F 18.0 °F 23.0 °F 80% 29.96 in 10.0 mi North 12.7 mph - N/A   Overcast
4:54 PM 26.6 °F 13.8 °F 21.2 °F 80% 29.99 in 10.0 mi NNW 17.3 mph 21.9 mph N/A   Overcast
5:15 PM 24.8 °F 10.0 °F 19.4 °F 80% 29.99 in 10.0 mi North 21.9 mph 26.5 mph N/A   Overcast
5:34 PM 24.8 °F 10.0 °F 19.4 °F 80% 30.00 in 10.0 mi North 21.9 mph 26.5 mph N/A   Overcast
5:54 PM 24.8 °F 10.3 °F 19.4 °F 80% 30.02 in 10.0 mi North 20.7 mph - N/A   Overcast
6:14 PM 24.8 °F 10.7 °F 19.4 °F 80% 30.03 in 10.0 mi North 19.6 mph - N/A   Overcast
6:34 PM 23.0 °F 7.6 °F 19.4 °F 86% 30.04 in 10.0 mi North 21.9 mph 29.9 mph N/A   Overcast
6:55 PM 23.0 °F 8.7 °F 19.4 °F 86% 30.04 in 10.0 mi North 18.4 mph 27.6 mph N/A   Overcast
7:14 PM 21.2 °F 6.0 °F 17.6 °F 86% 30.06 in 10.0 mi North 19.6 mph 25.3 mph N/A   Overcast
7:34 PM 21.2 °F 5.2 °F 17.6 °F 86% 30.07 in 10.0 mi North 21.9 mph 28.8 mph N/A   Overcast
7:55 PM 21.2 °F 5.2 °F 17.6 °F 86% 30.08 in 10.0 mi North 21.9 mph 27.6 mph N/A Snow Light Snow
8:14 PM 19.4 °F 2.1 °F 17.6 °F 93% 30.09 in 10.0 mi North 24.2 mph 31.1 mph N/A   Overcast
8:34 PM 19.4 °F 3.2 °F 15.8 °F 86% 30.11 in 10.0 mi North 20.7 mph 27.6 mph N/A   Overcast
8:55 PM 19.4 °F 2.8 °F 15.8 °F 86% 30.11 in 10.0 mi North 21.9 mph 28.8 mph N/A   Overcast
9:14 PM 17.6 °F 1.3 °F 14.0 °F 86% 30.12 in 7.0 mi North 19.6 mph - N/A Snow Light Snow
9:34 PM 17.6 °F 1.7 °F 15.8 °F 93% 30.12 in 5.0 mi North 18.4 mph 25.3 mph N/A Snow Light Snow
9:55 PM 17.6 °F 3.2 °F 15.8 °F 93% 30.12 in 4.0 mi North 15.0 mph - N/A Snow Light Snow
10:14 PM 17.6 °F 1.7 °F 15.8 °F 93% 30.14 in 7.0 mi North 18.4 mph - N/A Snow Light Snow
10:35 PM 17.6 °F 1.3 °F 15.8 °F 93% 30.15 in 7.0 mi North 19.6 mph 23.0 mph N/A Snow Light Snow
10:55 PM 17.6 °F 0.1 °F 14.0 °F 86% 30.16 in 7.0 mi North 23.0 mph 27.6 mph N/A Snow Light Snow
11:14 PM 17.6 °F 0.5 °F 14.0 °F 86% 30.17 in 5.0 mi NNW 21.9 mph 28.8 mph N/A Snow Light Snow
11:35 PM 17.6 °F 0.1 °F 14.0 °F 86% 30.18 in 4.0 mi North 23.0 mph 26.5 mph N/A Snow Light Snow
11:54 PM 15.8 °F -1.5 °F 12.2 °F 86% 30.19 in 2.5 mi NNW 20.7 mph 26.5 mph N/A Snow Light Snow